Weather History for Springfield, MO

Change the Weather History Date:

Monday, January 21, 2013

  Actual Average Record
Temperature  
Mean Temperature 26 °F 33 °F  
Max Temperature 33 °F 43 °F 71 °F (1957)
Min Temperature 18 °F 22 °F -8 °F (1984)
Degree Days  
Heating Degree Days 39 32  
Month to date heating degree days 629 687  
Since 1 July heating degree days 2276 2497  
Cooling Degree Days 0 0  
Month to date cooling degree days 0 0  
Year to date cooling degree days 0 0  
Moisture  
Dew Point 12 °F    
Average Humidity 61    
Maximum Humidity 80    
Minimum Humidity 41    
Precipitation  
Precipitation 0.00 in 0.08 in 2.58 in (1904)
Month to date precipitation 1.38 1.73  
Year to date precipitation 1.38 1.73  
Snow  
Snow 0.00 in - - ()
Month to date snowfall 0.1  
Since 1 July snowfall 1.4  
Snow Depth 0.00 in    
Sea Level Pressure  
Sea Level Pressure 30.37 in    
Wind  
Wind Speed 9 mph (North)    
Max Wind Speed 16 mph    
Max Gust Speed 23 mph    
Visibility 10 miles    
Events      
T = Trace of Precipitation, MM = Missing Value Source: NWS Daily Summary

Daily Weather History Graph

Daily Weather History Graph

Search for Another Location

Airport:

Trip Planner

Search our weather history database for the weather conditions in past years. The results will help you decide how hot, cold, wet, or windy it might be!

Date:

Astronomy

Jan. 21, 2013 Rise Set
Actual Time 7:23 AM CST 5:26 PM CST
Civil Twilight 6:55 AM CST 5:54 PM CST
Nautical Twilight 6:24 AM CST 6:26 PM CST
Astronomical Twilight 5:52 AM CST 6:57 PM CST
Moon 1:07 PM CST (1/21) 2:52 AM CST (1/21)
Length of Visible Light 10h 58m
Length of Day
10h 02m
Waxing Gibbous, 75% of the Moon is Illuminated
Jan 21
Waxing Gibbous
Jan 26
Full
Feb 3
Last Quarter
Feb 10
New
Feb 17
First Quarter

Hourly Weather History & Observations

Time (CST) Temp. Windchill Dew Point Humidity Pressure Visibility Wind Dir Wind Speed Gust Speed Precip Events Conditions
12:52 AM 25.0 °F 13.1 °F 15.1 °F 66% 30.31 in 10.0 mi North 13.8 mph - N/A   Clear
1:52 AM 24.1 °F 13.1 °F 14.0 °F 65% 30.33 in 10.0 mi North 11.5 mph - N/A   Clear
2:52 AM 23.0 °F 12.4 °F 14.0 °F 68% 30.35 in 10.0 mi North 10.4 mph - N/A   Clear
3:52 AM 21.0 °F 10.6 °F 14.0 °F 74% 30.36 in 10.0 mi North 9.2 mph - N/A   Clear
4:52 AM 21.0 °F 9.9 °F 12.0 °F 68% 30.36 in 10.0 mi North 10.4 mph - N/A   Clear
5:52 AM 19.9 °F 10.1 °F 12.0 °F 71% 30.38 in 10.0 mi North 8.1 mph - N/A   Clear
6:52 AM 18.0 °F 8.7 °F 12.0 °F 78% 30.39 in 10.0 mi NNW 6.9 mph - N/A   Clear
7:52 AM 19.0 °F 10.0 °F 12.0 °F 74% 30.39 in 10.0 mi North 6.9 mph - N/A   Clear
8:52 AM 21.9 °F 13.4 °F 10.0 °F 60% 30.41 in 10.0 mi North 6.9 mph - N/A   Clear
9:52 AM 26.1 °F 18.4 °F 9.0 °F 49% 30.40 in 10.0 mi NNE 6.9 mph - N/A   Clear
10:52 AM 28.9 °F 18.6 °F 10.9 °F 47% 30.41 in 10.0 mi North 12.7 mph - N/A   Clear
11:52 AM 30.0 °F 18.7 °F 10.9 °F 45% 30.40 in 10.0 mi North 16.1 mph 20.7 mph N/A   Clear
12:52 PM 30.9 °F 22.2 °F 10.9 °F 43% 30.37 in 10.0 mi NW 10.4 mph - N/A   Clear
1:52 PM 32.0 °F 23.6 °F 12.0 °F 44% 30.36 in 10.0 mi NNW 10.4 mph 23.0 mph N/A   Clear
2:52 PM 33.1 °F 24.9 °F 12.0 °F 42% 30.36 in 10.0 mi North 10.4 mph - N/A   Clear
3:52 PM 32.0 °F 24.2 °F 14.0 °F 48% 30.36 in 10.0 mi NNW 9.2 mph - N/A   Partly Cloudy
4:52 PM 28.9 °F 20.4 °F 12.9 °F 51% 30.36 in 10.0 mi NW 9.2 mph - N/A   Clear
5:52 PM 25.0 °F 14.2 °F 10.9 °F 55% 30.36 in 10.0 mi NNE 11.5 mph - N/A   Clear
6:52 PM 23.0 °F 13.9 °F 10.9 °F 60% 30.37 in 10.0 mi North 8.1 mph - N/A   Scattered Clouds
7:52 PM 21.9 °F 13.4 °F 10.9 °F 63% 30.37 in 10.0 mi NNE 6.9 mph - N/A   Clear
8:52 PM 19.9 °F 11.1 °F 10.0 °F 65% 30.38 in 10.0 mi North 6.9 mph - N/A   Clear
9:52 PM 21.0 °F - 10.9 °F 65% 30.37 in 10.0 mi Calm Calm - N/A   Mostly Cloudy
10:52 PM 23.0 °F 17.0 °F 10.9 °F 60% 30.38 in 10.0 mi NNE 4.6 mph - N/A   Overcast
11:52 PM 21.9 °F 15.7 °F 10.9 °F 63% 30.36 in 10.0 mi NNE 4.6 mph - N/A   Clear